Air Force Academy, CO

11:47 PM MDT on May 29, 2017 (GMT -0600)
Usaf Academy

Weather History for KAFF - October, 2011

Change the Weather History Date:

Thursday, October 6, 2011

  Actual Average Record
Temperature  
Mean Temperature 55 °F -  
Max Temperature 67 °F 64 °F 79 °F (2007)
Min Temperature 44 °F 36 °F 24 °F (1998)
Degree Days  
Heating Degree Days 10    
Growing Degree Days 5 (Base 50)    
Moisture  
Dew Point 29 °F    
Average Humidity 41    
Maximum Humidity 63    
Minimum Humidity 24    
Precipitation  
Precipitation 0.00 in - - ()
Sea Level Pressure  
Sea Level Pressure 29.42 in    
Wind  
Wind Speed 12 mph (SSW)    
Max Wind Speed 34 mph    
Max Gust Speed 44 mph    
Visibility 10 miles    
Events      
Averages and records for this station are not official NWS values.
T = Trace of Precipitation, MM = Missing Value Source: NWS Daily Summary

Daily Weather History Graph

Daily Weather History Graph

Search for Another Location

Airport or City:

Trip Planner

Search our weather history database for the weather conditions in past years. The results will help you decide how hot, cold, wet, or windy it might be!

Date:

Astronomy

Oct. 06, 2011 Rise Set
Actual Time 6:59 AM MDT 6:34 PM MDT
Civil Twilight 6:33 AM MDT 7:01 PM MDT
Nautical Twilight 6:02 AM MDT 7:31 PM MDT
Astronomical Twilight 5:31 AM MDT 8:02 PM MDT
Moon 3:47 PM MDT (10/6) 1:53 AM MDT (10/6)
Length of Visible Light 12h 28m
Length of Day
11h 34m
Waxing Gibbous, 76% of the Moon is Illuminated
Oct 6
Waxing Gibbous
Oct 11
Full
Oct 19
Last Quarter
Oct 26
New
Nov 2
First Quarter

Hourly Weather History & Observations

Time (MDT) Temp. Windchill Dew Point Humidity Pressure Visibility Wind Dir Wind Speed Gust Speed Precip Events Conditions
12:55 AM 50.2 °F - 30.4 °F 47% 29.47 in 10.0 mi Calm Calm - N/A   Clear
1:55 AM 44.2 °F 40.3 °F 32.0 °F 62% 29.46 in 10.0 mi North 6.9 mph - N/A   Clear
2:55 AM 48.7 °F - 31.6 °F 52% 29.44 in 10.0 mi East 4.6 mph - N/A   Clear
3:55 AM 48.0 °F - 33.8 °F 58% 29.41 in 10.0 mi SSW 6.9 mph - N/A   Clear
4:55 AM 48.2 °F - 32.5 °F 55% 29.39 in 10.0 mi East 6.9 mph - N/A   Clear
5:55 AM 44.2 °F - 32.4 °F 63% 29.39 in 10.0 mi Calm Calm - N/A   Clear
6:17 AM 51.8 °F - 33.8 °F 50% 29.36 in 10.0 mi SSE 18.4 mph 29.9 mph N/A   Clear
6:55 AM 54.1 °F - 34.9 °F 48% 29.37 in 10.0 mi SE 19.6 mph - N/A   Clear
7:55 AM 56.8 °F - 33.6 °F 42% 29.36 in 10.0 mi SSE 17.3 mph 28.8 mph N/A   Clear
8:55 AM 58.8 °F - 33.1 °F 38% 29.36 in 10.0 mi SSE 23.0 mph 28.8 mph N/A   Clear
9:55 AM 61.3 °F - 32.5 °F 34% 29.35 in 10.0 mi SE 27.6 mph 40.3 mph N/A   Clear
10:55 AM 63.9 °F - 33.1 °F 32% 29.34 in 10.0 mi South 28.8 mph 43.7 mph N/A   Clear
11:55 AM 63.3 °F - 30.6 °F 29% 29.33 in 10.0 mi South 28.8 mph 34.5 mph N/A   Partly Cloudy
12:55 PM 66.4 °F - 29.8 °F 25% 29.28 in 10.0 mi South 34.5 mph 43.7 mph N/A   Clear
1:55 PM 66.2 °F - 27.9 °F 24% 29.29 in 10.0 mi South 28.8 mph 43.7 mph N/A   Partly Cloudy
2:55 PM 64.2 °F - 30.7 °F 29% 29.31 in 10.0 mi South 28.8 mph 36.8 mph N/A   Clear
3:55 PM 56.8 °F - 35.4 °F 45% 29.40 in 10.0 mi SSW 12.7 mph 26.5 mph N/A   Clear
4:43 PM 55.4 °F - 32.0 °F 41% 29.43 in 10.0 mi SW 10.4 mph 20.7 mph N/A   Scattered Clouds
4:55 PM 54.9 °F - 27.7 °F 35% 29.42 in 10.0 mi WSW 11.5 mph 27.6 mph N/A   Scattered Clouds
5:55 PM 49.1 °F - 32.4 °F 53% 29.50 in 10.0 mi NW 10.4 mph - N/A   Partly Cloudy
6:55 PM 50.2 °F - 25.9 °F 39% 29.47 in 10.0 mi NNW 10.4 mph 26.5 mph N/A   Partly Cloudy
7:55 PM 51.3 °F - 19.6 °F 29% 29.50 in 10.0 mi WNW 5.8 mph 24.2 mph N/A   Mostly Cloudy
8:55 PM 48.7 °F - 21.0 °F 34% 29.51 in 10.0 mi NNW 9.2 mph - N/A   Mostly Cloudy
9:55 PM 47.3 °F - 21.2 °F 36% 29.56 in 10.0 mi NW 10.4 mph - N/A   Mostly Cloudy
10:55 PM 46.6 °F - 15.6 °F 29% 29.56 in 10.0 mi WNW 13.8 mph - N/A   Mostly Cloudy
11:55 PM 46.4 °F 40.7 °F 14.4 °F 28% 29.55 in 10.0 mi NW 12.7 mph 21.9 mph N/A   Mostly Cloudy